Location: Newark
(45.9456°N, 15.4064°E)
Time: 18:28:42
(UTC+00:00)

Courier 1B Rocket - Pass Details

Date: 26 January 2020
Orbit: 920 x 1202 km, 28.2° (Epoch: 16 February)

Event Time Altitude Azimuth Distance (km) Brightness Sun altitude
Rises 09:52:10 0° 215° (SW) 3,973 8.7 22.9°
Reaches altitude 10° 09:56:53 10° 190° (S) 2,951 8.7 23.1°
Maximum altitude 09:59:51 13° 165° (SSE) 2,696 9.6 23.3°
Drops below altitude 10° 10:02:45 10° 140° (SE) 2,865 8.9 23.4°
Sets 10:07:10 0° 114° (ESE) 3,750 8.6 23.7°
